Regional Weather Roundup
Issued by NWS

Home | Current Version | Previous Version | Graphics & Text | Print | Product List | Glossary On
Versions: 1 2 3 4 5 6 7 8 9 10 11 12 13 14 15 16 17 18 19 20 21 22 23 24 25 26 27 28 29 30 31 32 33 34 35 36 37 38 39 40 41 42 43 44 45 46 47 48 49 50
000
ASUS45 KABQ 080310
RWRNM
NEW MEXICO REGIONAL WEATHER ROUNDUP
NATIONAL WEATHER SERVICE ALBUQUERQUE NM
800 PM MST WED DEC 07 2016

NOTE: "FAIR" MEANS FEW OR NO CLOUDS BELOW 12,000 FEET AGL WITH NO
       SIGNIFICANT WEATHER OR OBSTRUCTIONS TO VISION.

      THIS PRODUCT IS RELEASED AS TWO VERSIONS.  ONE VERSION NEAR
      THE TOP OF THE HOUR CONTAINING PRELIMINARY DATA FROM ALBUQUERQUE
      AND OTHER STATIONS.  A FINAL VERSION WITH ADDITIONAL DATA IS
      ISSUED ABOUT 10 MINUTES AFTER THE HOUR.

NMZ501-503-504-510>518-080400-
NORTHWEST PLATEAU/NORTHCENTRAL MOUNTAINS

CITY           SKY/WX    TMP DP  RH WIND       PRES   REMARKS
FARMINGTON     FAIR      28   4  35 CALM      30.19R
LOS ALAMOS     FAIR      28  11  47 CALM      30.17R
SANTA FE       FAIR      28  10  46 N3        30.16R
TAOS           FAIR      23   7  50 S6        30.16R WCI  16
ANGEL FIRE     FAIR      16   8  71 SE6       30.14R WCI   7

$$
NMZ402-403-502-505>509-080400-
WESTCENTRAL MOUNTAINS/SOUTHWEST MOUNTAINS

CITY           SKY/WX    TMP DP  RH WIND       PRES   REMARKS
GALLUP         FAIR      26  11  52 NE12      30.17R WCI  16
GRANTS         FAIR      27  14  57 NW13G20   30.20R WCI  16

$$
NMZ407-409-411-412-080400-
SOUTHERN DESERTS

CITY           SKY/WX    TMP DP  RH WIND       PRES   REMARKS
DEMING         FAIR      49  35  58 W6        30.10R
LAS CRUCES     FAIR      50  31  48 W5        30.10R
HOLLOMAN AFB   FAIR      49  29  45 SE6       30.13R
T OR C         FAIR      47  23  38 N14       30.10R

$$
NMZ519>523-080400-
CENTRAL VALLEYS/CENTRAL HIGHLANDS

CITY           SKY/WX    TMP DP  RH WIND       PRES   REMARKS
ALBUQUERQUE    MOCLDY    38  17  42 N6        30.18R WCI  33
DOUBLE EAGLE   PTCLDY    28  14  54 N5        30.19R WCI  23
MORIARTY ARPT  FAIR      24  15  68 CALM      30.19R
CLINES CORNERS FAIR      21  11  65 E14       30.21R WCI   8
BELEN          FAIR      33  18  54 N6        30.18R WCI  27
SOCORRO        FAIR      41  20  43 N10       30.16R

$$
NMZ524>526-539-540-080400-
SOUTHCENTRAL MOUNTAINS

CITY           SKY/WX    TMP DP  RH WIND       PRES   REMARKS
RUIDOSO        FAIR      30  21  69 SE7       30.22R WCI  23

$$
NMZ527>531-080400-
NORTHEAST HIGHLANDS/NORTHEAST PLAINS

CITY           SKY/WX    TMP DP  RH WIND       PRES   REMARKS
LAS VEGAS      FAIR      13   6  74 NE13      30.22R WCI  -2
RATON          FAIR      12   5  73 NE13      30.25R WCI  -3
CLAYTON        CLOUDY    17  14  88 NE15      30.34R WCI   2

$$
NMZ532>537-080400-
EASTCENTRAL PLAINS

CITY           SKY/WX    TMP DP  RH WIND       PRES   REMARKS
TUCUMCARI      CLOUDY    25  15  66 NE17      30.36R WCI  12
CANNON AFB     MOCLDY    26  20  79 NE18      30.30R WCI  12
CLOVIS AIRPORT CLOUDY    27  16  63 NE21      30.30R WCI  13

$$
NMZ028-029-538-080400-
SOUTHEAST PLAINS

CITY           SKY/WX    TMP DP  RH WIND       PRES   REMARKS
ROSWELL        MOCLDY    37  16  42 NE15      30.25R WCI  28
ARTESIA        MOCLDY    41  39  93 NE9       30.23R
CARLSBAD       NOT AVBL


$$



USA.gov is the U.S. government's official web portal to all federal, state and local government web resources and services.